Location: Home
(42.5358°N, 72.7383°W)
Time: 09:29:56
(UTC-05:00)

Vanguard 2 Rocket - Pass Details

Date: 01 December 2021
Orbit: 553 x 3325 km, 32.9° (Epoch: 22 January)

Event Time Altitude Azimuth Distance (km) Brightness Sun altitude
Rises 19:45:08 0° 249° (WSW) 3,823 10.9 -37.4°
Reaches altitude 10° 19:47:25 10° 244° (WSW) 3,127 10.2 -37.8°
Enters shadow 19:53:54 48° 191° (SSW) 2,052 8.5 -39.0°
Maximum altitude 19:55:08 50° 171° (S) 2,107 - -39.2°
Drops below altitude 10° 20:08:34 10° 102° (ESE) 5,308 - -41.7°
Sets 20:13:45 0° 99° (E) 6,695 - -42.6°
